Regional Weather Roundup
Issued by NWS

Home | Current Version | Previous Version | Graphics & Text | Print | Product List | Glossary On
Versions: 1 2 3 4 5 6 7 8 9 10 11 12 13 14 15 16 17 18 19 20 21 22 23 24 25 26 27 28 29 30 31 32 33 34 35 36 37 38 39 40 41 42 43 44 45 46 47 48 49 50
695
ASUS45 KCYS 231910
RWRWY

WYOMING REGIONAL WEATHER ROUNDUP
NATIONAL WEATHER SERVICE CHEYENNE WY
100 PM MDT SUN APR 23 2017

NOTE:  "FAIR" INDICATES FEW OR NO CLOUDS BELOW 12,000 FEET
WITH NO SIGNIFICANT WEATHER AND/OR OBSTRUCTIONS TO VISIBILITY.

WYZ001-232000-
YELLOWSTONE NATIONAL PARK

CITY           SKY/WX    TMP DP  RH WIND       PRES   REMARKS
LK YELLOWSTONE   N/A     46  24  42 VRB6      29.88F
W YELLOWSTONE  NOT AVBL

$$
WYZ002>013-054>058-071-098>099-232000-
NORTHERN WYOMING

CITY           SKY/WX    TMP DP  RH WIND       PRES   REMARKS
JACKSON        MOSUNNY   54  25  32 S12       29.85F
CODY           FAIR      61  36  39 S10       29.74F
GREYBULL       FAIR      65  33  30 S9        29.71F
WORLAND        FAIR      66  35  31 SE12      29.71F
SHERIDAN       FAIR      68  34  28 SE12G21   29.70F
BUFFALO        FAIR      66  32  28 SE20G26   29.74F
GILLETTE       FAIR      65  33  30 VRB7      29.74F
HULETT         FAIR      63  32  31 NW3       29.77F
NEWCASTLE      FAIR      63  28  27 S10G16    29.78F

$$
WYZ014>020-022>026-101>103-232000-
CENTRAL WYOMING

CITY           SKY/WX    TMP DP  RH WIND       PRES   REMARKS
BIG PINEY      FAIR      59  27  29 NW8G21    29.87F
PINEDALE       CLOUDY    54  23  30 N5        29.88F
DUBOIS         MOCLDY    54  21  28 W23G31    29.84F
LANDER         FAIR      63  31  30 NE5       29.76F
RIVERTON       FAIR      63  30  28 W3        29.77F
CASPER         FAIR      68  26  20 SW25G31   29.78F
DOUGLAS        FAIR      68  32  26 SE9       29.79F

$$
WYZ021-027>030-104>119-232000-
SOUTHERN WYOMING

CITY           SKY/WX    TMP DP  RH WIND       PRES   REMARKS
EVANSTON       FAIR      63  27  25 SW18G28   29.86F
KEMMERER         N/A     59  28  31 W21G26    29.88F
FORT BRIDGER   MOCLDY    60  28  29 CALM      29.89F
ROCK SPRINGS   FAIR      64  19  17 SW7G22    29.85F
DIXON            N/A     65  25  22 SW22G32   29.94F
RAWLINS        FAIR      63  18  17 SW29G45   29.87F
SARATOGA       FAIR      64  19  17 S20G29    29.92F
LARAMIE        FAIR      63  22  20 SW14      29.89F
CHEYENNE       FAIR      64  27  24 S13G20    29.89F
TORRINGTON     FAIR      73  22  14 MISG      29.77F
PINE BLUFFS    FAIR      63  36  36 S15       29.87F

$$




USA.gov is the U.S. government's official web portal to all federal, state and local government web resources and services.